Location: Newark
(39.0622°N, 106.5590°E)
Time: 00:56:47
(UTC+00:00)

Courier 1B - Pass Details

Date: 26 January 2020
Orbit: 962 x 1209 km, 28.3° (Epoch: 20 February)

Event Time Altitude Azimuth Distance (km) Brightness Sun altitude
Rises 20:17:36 0° 246° (WSW) 3,840 - -44.1°
Reaches altitude 10° 20:20:30 10° 237° (WSW) 2,925 - -43.5°
Maximum altitude 20:26:56 35° 174° (S) 1,732 - -42.3°
Exits shadow 20:30:01 26° 133° (SE) 2,103 9.4 -41.7°
Drops below altitude 10° 20:33:41 10° 112° (ESE) 3,080 10.6 -41.0°
Sets 20:36:49 0° 104° (ESE) 4,069 11.5 -40.4°
